This is the latest recevied weather packets stored in our database for station/object WA6TJQ. If no packets are shown the sender has not sent any weather packets the latest 10 day(s).
| Time | Temp. | Humidity | Pressure | Rain* | Wind** | Luminosity | Snow |
|---|---|---|---|---|---|---|---|
| 1777429893 | 7.78° C | 62% | 1011.4 hPa | 0 mm | - | - | - |
| 1777429593 | 7.78° C | 62% | 1011.4 hPa | 0 mm | - | - | - |
| 1777429293 | 7.78° C | 63% | 1011.3 hPa | 0 mm | - | - | - |
| 1777428993 | 8.33° C | 65% | 1011.2 hPa | 0 mm | - | - | - |
| 1777428693 | 8.33° C | 64% | 1011.2 hPa | 0 mm | - | - | - |
| 1777428392 | 8.33° C | 64% | 1011.2 hPa | 0 mm | - | - | - |
| 1777428092 | 8.33° C | 64% | 1011.1 hPa | 0 mm | - | - | - |
| 1777427792 | 8.89° C | 63% | 1011.2 hPa | 0 mm | - | - | - |
| 1777427492 | 8.89° C | 62% | 1011.2 hPa | 0 mm | - | - | - |
| 1777427192 | 8.89° C | 62% | 1011.2 hPa | 0 mm | - | - | - |
| 1777426892 | 8.89° C | 61% | 1011.3 hPa | 0 mm | - | - | - |
| 1777426592 | 9.44° C | 60% | 1011.2 hPa | 0 mm | - | - | - |
| 1777426292 | 9.44° C | 59% | 1011.2 hPa | 0 mm | - | - | - |
| 1777425992 | 9.44° C | 59% | 1011.3 hPa | 0 mm | - | - | - |
| 1777425692 | 9.44° C | 57% | 1011.2 hPa | 0 mm | - | - | - |
| 1777425392 | 9.44° C | 57% | 1011.1 hPa | 0 mm | - | - | - |
| 1777425092 | 10° C | 55% | 1011.1 hPa | 0 mm | - | - | - |
| 1777424792 | 10° C | 54% | 1011.3 hPa | 0 mm | - | - | - |
| 1777424492 | 10° C | 54% | 1011.2 hPa | 0 mm | - | - | - |
| 1777424192 | 10° C | 54% | 1011.2 hPa | 0 mm | - | - | - |
| 1777423892 | 10° C | 50% | 1011.1 hPa | 0 mm | - | - | - |
| 1777423592 | 10° C | 51% | 1011.3 hPa | 0 mm | - | - | - |
| 1777423292 | 10° C | 50% | 1011.1 hPa | 0 mm | - | - | - |
| 1777422992 | 10° C | 50% | 1011.3 hPa | 0 mm | - | - | - |
| 1777422692 | 10° C | 49% | 1011.2 hPa | 0 mm | - | - | - |
* Rain latest hour (hover to see other rain measurements)
** Current wind speed in m/s (hover to see current wind gust speed)